| time (UTC) | temp F | wind direction | speed MPH | gust MPH | rain 1hr in | rain 24hr in | rain mn in | humidity % | barometer mb |
| 20260509173041 | 72 | 196 | 5.0 | 19.0 | 0.00 | 0.00 | 0.00 | 56 | 1007.5 |
| 20260509171543 | 71 | 210 | 10.0 | 19.0 | 0.00 | 0.00 | 0.00 | 57 | 1007.7 |
| 20260509170047 | 70 | 180 | 9.0 | 15.0 | 0.00 | 0.00 | 0.00 | 59 | 1007.9 |
| 20260509164543 | 69 | 234 | 10.0 | 16.0 | 0.00 | 0.00 | 0.00 | 58 | 1007.9 |
| 20260509163039 | 69 | 223 | 12.0 | 18.0 | 0.00 | 0.00 | 0.00 | 58 | 1008.0 |
| 20260509161537 | 70 | 252 | 10.0 | 18.0 | 0.00 | 0.00 | 0.00 | 57 | 1008.1 |
| 20260509160041 | 70 | 250 | 9.0 | 21.0 | 0.00 | 0.00 | 0.00 | 56 | 1008.2 |
| 20260509154543 | 70 | 190 | 8.0 | 22.0 | 0.00 | 0.00 | 0.00 | 56 | 1008.2 |
| 20260509153050 | 69 | 205 | 14.0 | 24.0 | 0.00 | 0.00 | 0.00 | 57 | 1008.4 |
| 20260509151539 | 68 | 248 | 8.0 | 21.0 | 0.00 | 0.00 | 0.00 | 59 | 1008.6 |
| 20260509150047 | 67 | 194 | 11.0 | 20.0 | 0.00 | 0.00 | 0.00 | 60 | 1008.3 |
| 20260509144543 | 66 | 215 | 11.0 | 23.0 | 0.00 | 0.00 | 0.00 | 61 | 1008.7 |
| 20260509143043 | 65 | 244 | 13.0 | 21.0 | 0.00 | 0.00 | 0.00 | 62 | 1008.9 |
| 20260509141541 | 64 | 130 | 11.0 | 19.0 | 0.00 | 0.00 | 0.00 | 63 | 1008.9 |
| 20260509140051 | 64 | 207 | 8.0 | 18.0 | 0.00 | 0.00 | 0.00 | 64 | 1009.3 |
| 20260509134545 | 63 | 212 | 10.0 | 18.0 | 0.00 | 0.00 | 0.00 | 65 | 1009.5 |
| 20260509133047 | 62 | 182 | 10.0 | 17.0 | 0.00 | 0.00 | 0.00 | 66 | 1009.4 |
| 20260509131544 | 61 | 191 | 9.0 | 15.0 | 0.00 | 0.00 | 0.00 | 68 | 1009.4 |
| 20260509130048 | 60 | 223 | 6.0 | 18.0 | 0.00 | 0.00 | 0.00 | 70 | 1009.5 |
| 20260509124549 | 59 | 198 | 7.0 | 12.0 | 0.00 | 0.00 | 0.00 | 71 | 1009.5 |
| 20260509123050 | 58 | 139 | 11.0 | 19.0 | 0.00 | 0.00 | 0.00 | 72 | 1009.4 |
| 20260509121547 | 57 | 210 | 6.0 | 11.0 | 0.00 | 0.00 | 0.00 | 74 | 1009.5 |
| 20260509120105 | 56 | 207 | 9.0 | 15.0 | 0.00 | 0.00 | 0.00 | 75 | 1009.5 |
| 20260509114547 | 56 | 199 | 6.0 | 19.0 | 0.00 | 0.00 | 0.00 | 74 | 1009.5 |
| 20260509113054 | 55 | 174 | 8.0 | 14.0 | 0.00 | 0.00 | 0.00 | 74 | 1009.4 |
| 20260509111539 | 55 | 215 | 7.0 | 11.0 | 0.00 | 0.00 | 0.00 | 73 | 1009.4 |
| 20260509110053 | 55 | 209 | 7.0 | 12.0 | 0.00 | 0.00 | 0.00 | 72 | 1009.2 |
| 20260509104545 | 55 | 157 | 3.0 | 14.0 | 0.00 | 0.00 | 0.00 | 71 | 1009.1 |
| 20260509103046 | 55 | 192 | 5.0 | 15.0 | 0.00 | 0.00 | 0.00 | 71 | 1009.2 |
| 20260509101553 | 55 | 211 | 6.0 | 10.0 | 0.00 | 0.00 | 0.00 | 70 | 1009.3 |
| 20260509100052 | 55 | 194 | 3.0 | 5.0 | 0.00 | 0.00 | 0.00 | 69 | 1009.1 |
| 20260509094552 | 55 | 213 | 3.0 | 8.0 | 0.00 | 0.00 | 0.00 | 68 | 1009.1 |
| 20260509093054 | 56 | 198 | 5.0 | 9.0 | 0.00 | 0.00 | 0.00 | 66 | 1009.3 |
| 20260509091622 | 56 | 177 | 2.0 | 9.0 | 0.00 | 0.00 | 0.00 | 65 | 1009.1 |
| 20260509090057 | 56 | 202 | 5.0 | 10.0 | 0.00 | 0.00 | 0.00 | 64 | 1009.2 |
| 20260509084550 | 56 | 193 | 4.0 | 8.0 | 0.00 | 0.00 | 0.00 | 65 | 1009.2 |
| 20260509083054 | 56 | 214 | 4.0 | 8.0 | 0.00 | 0.00 | 0.00 | 65 | 1009.2 |
| 20260509081557 | 56 | 221 | 4.0 | 8.0 | 0.00 | 0.00 | 0.00 | 65 | 1009.5 |
| 20260509080106 | 56 | 286 | 5.0 | 8.0 | 0.00 | 0.00 | 0.00 | 65 | 1009.7 |
| 20260509074555 | 56 | 236 | 2.0 | 9.0 | 0.00 | 0.00 | 0.00 | 64 | 1009.8 |
| 20260509073138 | 56 | 230 | 4.0 | 10.0 | 0.00 | 0.00 | 0.00 | 63 | 1010.0 |
| 20260509071551 | 56 | 205 | 5.0 | 11.0 | 0.00 | 0.00 | 0.00 | 62 | 1010.0 |
| 20260509070100 | 57 | 217 | 5.0 | 13.0 | 0.00 | 0.00 | 0.00 | 61 | 1010.1 |
| 20260509064554 | 57 | 196 | 7.0 | 14.0 | 0.00 | 0.00 | 0.00 | 60 | 1010.0 |
| 20260509063306 | 57 | 209 | 6.0 | 11.0 | 0.00 | 0.00 | 0.00 | 59 | 1010.2 |
| 20260509061534 | 57 | 173 | 6.0 | 10.0 | 0.00 | 0.00 | 0.00 | 59 | 1010.3 |
| 20260509060037 | 57 | 182 | 5.0 | 11.0 | 0.00 | 0.00 | 0.00 | 58 | 1010.3 |
| 20260509054528 | 57 | 208 | 5.0 | 12.0 | 0.00 | 0.00 | 0.00 | 57 | 1010.1 |
| 20260509053033 | 58 | 203 | 6.0 | 10.0 | 0.00 | 0.00 | 0.00 | 56 | 1010.0 |
| 20260509051534 | 58 | 188 | 6.0 | 10.0 | 0.00 | 0.00 | 0.00 | 55 | 1010.1 |
| 20260509050031 | 58 | 207 | 4.0 | 11.0 | 0.00 | 0.00 | 0.00 | 54 | 1010.3 |
| 20260509044538 | 59 | 210 | 6.0 | 10.0 | 0.00 | 0.00 | 0.00 | 54 | 1010.1 |
| 20260509043035 | 59 | 197 | 6.0 | 10.0 | 0.00 | 0.00 | 0.00 | 53 | 1010.2 |
| 20260509041532 | 60 | 202 | 5.0 | 11.0 | 0.00 | 0.00 | 0.00 | 52 | 1010.1 |
| 20260509040048 | 60 | 238 | 6.0 | 10.0 | 0.00 | 0.00 | 0.00 | 50 | 1010.2 |
| 20260509034541 | 61 | 192 | 4.0 | 9.0 | 0.00 | 0.00 | 0.00 | 49 | 1010.5 |
| 20260509033030 | 62 | 208 | 4.0 | 7.0 | 0.00 | 0.00 | 0.00 | 48 | 1010.7 |
| 20260509031535 | 62 | 211 | 2.0 | 7.0 | 0.00 | 0.00 | 0.00 | 47 | 1010.8 |
| 20260509030035 | 63 | 161 | 4.0 | 7.0 | 0.00 | 0.00 | 0.00 | 46 | 1010.6 |
| 20260509024529 | 63 | 201 | 5.0 | 8.0 | 0.00 | 0.00 | 0.00 | 45 | 1010.7 |
| 20260509023032 | 63 | 167 | 4.0 | 10.0 | 0.00 | 0.00 | 0.00 | 45 | 1010.6 |
| 20260509021534 | 64 | 184 | 5.0 | 11.0 | 0.00 | 0.00 | 0.00 | 44 | 1010.5 |
| 20260509020028 | 64 | 203 | 4.0 | 10.0 | 0.00 | 0.00 | 0.00 | 43 | 1010.3 |
| 20260509014535 | 65 | 149 | 4.0 | 9.0 | 0.00 | 0.00 | 0.00 | 42 | 1010.3 |
| 20260509013035 | 66 | 151 | 4.0 | 9.0 | 0.00 | 0.00 | 0.00 | 41 | 1010.4 |
| 20260509011550 | 66 | 186 | 3.0 | 10.0 | 0.00 | 0.00 | 0.00 | 40 | 1010.4 |
| 20260509010038 | 67 | 200 | 5.0 | 10.0 | 0.00 | 0.00 | 0.00 | 39 | 1010.1 |
| 20260509004541 | 67 | 216 | 5.0 | 11.0 | 0.00 | 0.00 | 0.00 | 39 | 1010.1 |
| 20260509003035 | 68 | 205 | 6.0 | 12.0 | 0.00 | 0.00 | 0.00 | 38 | 1010.1 |
| 20260509001533 | 69 | 161 | 7.0 | 11.0 | 0.00 | 0.00 | 0.00 | 38 | 1010.0 |
| 20260509000033 | 69 | 191 | 6.0 | 11.0 | 0.00 | 0.00 | 0.00 | 37 | 1009.8 |
| 20260508234533 | 70 | 180 | 7.0 | 12.0 | 0.00 | 0.00 | 0.00 | 36 | 1009.4 |
| 20260508233030 | 70 | 198 | 10.0 | 15.0 | 0.00 | 0.00 | 0.00 | 36 | 1009.5 |
| 20260508231536 | 71 | 207 | 8.0 | 12.0 | 0.00 | 0.00 | 0.00 | 35 | 1009.4 |
| 20260508230041 | 71 | 210 | 9.0 | 18.0 | 0.00 | 0.00 | 0.00 | 35 | 1009.2 |
| 20260508224534 | 71 | 263 | 7.0 | 14.0 | 0.00 | 0.00 | 0.00 | 35 | 1009.3 |
| 20260508223042 | 71 | 217 | 10.0 | 21.0 | 0.00 | 0.00 | 0.00 | 34 | 1009.3 |
| 20260508221532 | 72 | 325 | 12.0 | 21.0 | 0.00 | 0.00 | 0.00 | 33 | 1009.4 |
| 20260508220036 | 72 | 162 | 7.0 | 19.0 | 0.00 | 0.00 | 0.00 | 34 | 1009.4 |
| 20260508214538 | 72 | 186 | 6.0 | 21.0 | 0.00 | 0.00 | 0.00 | 33 | 1009.6 |
| 20260508213035 | 73 | 209 | 9.0 | 24.0 | 0.00 | 0.00 | 0.00 | 32 | 1009.6 |
| 20260508211534 | 72 | 161 | 11.0 | 19.0 | 0.00 | 0.00 | 0.00 | 33 | 1009.7 |
| 20260508210034 | 72 | 189 | 6.0 | 15.0 | 0.00 | 0.00 | 0.00 | 32 | 1009.7 |
| 20260508204536 | 72 | 223 | 7.0 | 17.0 | 0.00 | 0.00 | 0.00 | 32 | 1009.8 |
| 20260508203040 | 71 | 227 | 4.0 | 20.0 | 0.00 | 0.00 | 0.00 | 33 | 1009.9 |
| 20260508201537 | 71 | 140 | 7.0 | 12.0 | 0.00 | 0.00 | 0.00 | 33 | 1009.9 |
| 20260508200043 | 71 | 235 | 8.0 | 17.0 | 0.00 | 0.00 | 0.00 | 34 | 1010.3 |
| 20260508194540 | 71 | 139 | 8.0 | 15.0 | 0.00 | 0.00 | 0.00 | 34 | 1010.2 |
| 20260508193052 | 72 | 109 | 8.0 | 14.0 | 0.00 | 0.00 | 0.00 | 33 | 1010.3 |
| 20260508191540 | 70 | 242 | 11.0 | 18.0 | 0.00 | 0.00 | 0.00 | 34 | 1010.7 |
| 20260508190037 | 70 | 243 | 8.0 | 18.0 | 0.00 | 0.00 | 0.00 | 34 | 1010.8 |
| 20260508184538 | 69 | 250 | 6.0 | 20.0 | 0.00 | 0.01 | 0.00 | 35 | 1011.2 |
| 20260508183040 | 69 | 236 | 5.0 | 15.0 | 0.00 | 0.01 | 0.00 | 35 | 1011.6 |
| 20260508181549 | 69 | 204 | 5.0 | 15.0 | 0.00 | 0.01 | 0.00 | 35 | 1011.6 |
| 20260508180041 | 69 | 63 | 9.0 | 21.0 | 0.00 | 0.01 | 0.00 | 36 | 1011.6 |
| 20260508174542 | 68 | 280 | 7.0 | 13.0 | 0.00 | 0.01 | 0.00 | 38 | 1011.9 |